Location: Newark
(36.2667°N, 50.0000°E)
Time: 21:57:26
(UTC+00:00)

Envisat - Visible Passes

Search period start: 20 September 2020 00:00
Search period end: 30 September 2020 00:00
Orbit: 764 x 766 km, 98.1° (Epoch: 20 September)

Date Brightness Start Highest point End Pass type
(mag) Time Alt. Az. Time Alt. Az. Time Alt. Az.
20 Sep 6.0 01:39:46 10° NE 01:43:17 19° E 01:46:48 10° SE visible
22 Sep 5.8 14:55:49 10° SSW 14:59:51 24° W 15:03:54 10° NW visible
23 Sep 6.2 01:29:06 10° ENE 01:31:50 14° E 01:34:31 10° SE visible
24 Sep 6.4 15:23:18 10° WSW 15:25:31 13° W 15:27:44 10° WNW visible
25 Sep 5.5 01:53:14 10° NE 01:57:28 26° E 02:01:42 10° SSE visible
26 Sep 6.6 01:19:11 10° ENE 01:20:21 11° E 01:21:31 10° ESE visible
27 Sep 6.1 15:10:50 10° SW 15:14:02 17° W 15:17:16 10° NW visible
28 Sep 6.0 01:42:17 10° NE 01:46:02 21° E 01:49:46 10° SE visible
